Regional Weather Roundup
Issued by NWS

Home | Current Version | Previous Version | Graphics & Text | Print | Product List | Glossary On
Versions: 1 2 3 4 5 6 7 8 9 10 11 12 13 14 15 16 17 18 19 20 21 22 23 24 25 26 27 28 29 30 31 32 33 34 35 36 37 38 39 40 41 42 43 44 45 46 47 48 49 50
000
ASUS43 KMPX 222301
RWRMN
WEATHER ROUNDUP FOR MINNESOTA
NATIONAL WEATHER SERVICE TWIN CITIES/CHANHASSEN MN
600 PM CDT THU JUN 22 2017


NOTE: "FAIR" INDICATES FEW OR NO CLOUDS BELOW 12,000 FEET WITH NO
SIGNIFICANT WEATHER AND/OR OBSTRUCTIONS TO VISIBILITY. N/A MEANS
CURRENT SKY AND/OR WEATHER CONDITIONS ARE NOT AVAILABLE.

MNZ060>063-068>070-230000-
   Twin Cities Metro

CITY           SKY/WX    TMP DP  RH WIND       PRES   REMARKS
TWIN CITIES    CLOUDY    71  63  75 W3        29.74F
ST PAUL        CLOUDY    69  65  86 SW3       29.74F
CRYSTAL        PTSUNNY   70  61  73 NW8       29.72F
BLAINE         PTSUNNY   72  66  83 W7        29.74F
LAKEVILLE      LGT RAIN  64  64 100 NW5       29.75S
EDEN PRAIRIE   MOSUNNY   71  64  78 VRB3      29.74S
SOUTH ST PAUL  CLOUDY    68  65  92 CALM      29.74S
LAKE ELMO      FAIR      68  64  88 NW5       29.75S
$$
MNZ001>005-007-008-013>017-022>024-027-028-230000-
   Northwest Minnesota

CITY           SKY/WX    TMP DP  RH WIND       PRES   REMARKS
BEMIDJI        SUNNY     74  40  29 W22G29    29.69R
HALLOCK        MOSUNNY   72  37  28 W21G31    29.62S
ROSEAU           N/A     72  43  35 W21G35    29.61S
WARROAD        SUNNY     70  45  40 W17G23    29.60S
CROOKSTON      PTSUNNY   73  39  29 NW22G29   29.69S
FOSSTON        SUNNY     72  37  28 W18G30    29.71R
DETROIT LAKES  SUNNY     75  37  25 NW18G26   29.74S
MOORHEAD       SUNNY     73  39  29 W16G23    29.73R
PARK RAPIDS    MOSUNNY   78  40  25 W21G32    29.70F
MAHNOMEN       FAIR      72  40  31 W20G28    29.71R
$$
MNZ006-009>011-018-025>026-230000-
   North Central Minnesota

CITY           SKY/WX    TMP DP  RH WIND       PRES   REMARKS
BAUDETTE       MOSUNNY   70  39  32 W17G28    29.61R
FLAG ISLAND    MOSUNNY   70  37  30 W22G28    29.55S HAZE
INTL FALLS     LGT RAIN  69  42  37 SW12G35   29.61S
WASKISH        MOSUNNY   72  52  49 W16G24    29.65S
BIG FORK       MOSUNNY   73  45  35 W6        29.65S
LONGVILLE      CLOUDY    72  46  40 W10G17    29.69S
GRAND RAPIDS   PTSUNNY   74  47  38 W10G17    29.69F
CRANE LAKE     SUNNY     73  39  29 SW8G17    29.62F
ORR            MOSUNNY   70  46  43 W8        29.61F
COOK           RAIN      68  52  56 SW9       29.66R
WALKER         FAIR      74  46  36 W10G24    29.68S
$$
MNZ012-019>021-037-230000-
   Northeast Minnesota

CITY           SKY/WX    TMP DP  RH WIND       PRES   REMARKS
DULUTH         MOSUNNY   73  49  42 W8        29.67F
ELY            MOSUNNY   72  41  33 W9        29.64S
HIBBING        PTSUNNY   70  45  40 W10G23    29.67S
EVELETH        SUNNY     73  33  23 W12G20    29.67F
DULUTH HARBOR  SUNNY     79  54  41 SW20      29.65F
TWO HARBORS    MOSUNNY   79  54  41 W10G17    29.64S
SILVER BAY     MOSUNNY   79  46  31 SW7       29.63S
GRAND MARAIS     N/A     56  45  66 W6        29.62S
G MARAIS ARPRT MOSUNNY   72  37  28 W10G18    29.66S
$$
MNZ029>031-032-039>041-046>048-054>057-064-230000-
   West Central Minnesota

CITY           SKY/WX    TMP DP  RH WIND       PRES   REMARKS
FERGUS FALLS   MOSUNNY   77  48  36 NW18      29.70S
WHEATON        PTSUNNY   75  52  43 W6        29.76S
MORRIS         SUNNY     75  57  53 SW12      29.75F
ALEXANDRIA     SUNNY     73  57  57 SW13      29.76F
ELBOW LAKE     CLOUDY    72  50  46 NW7       29.75S
WADENA         PTSUNNY   72  52  49 W8        29.72F
GLENWOOD       SUNNY     72  57  60 SW12      29.78S
APPLETON       MOSUNNY   73  52  46 SW5       29.77F
BENSON         SUNNY     73  55  53 SW8       29.79F
ORTONVILLE     SUNNY     73  54  49 S6        29.77S
MADISON        SUNNY     73  54  49 S3        29.78F
WILLMAR        FAIR      72  54  53 NW7       29.79S
$$
MNZ033>034-036-042>043-049>051-058-059-230000-
   Central Minnesota

CITY           SKY/WX    TMP DP  RH WIND       PRES   REMARKS
ST CLOUD       SUNNY     73  49  42 W8        29.75F
SAUK CENTRE    FAIR      71  57  61 SW10G16   29.76F
PAYNESVILLE    SUNNY     74  50  43 W6        29.77F
AITKIN         SUNNY     73  48  40 SW8       29.68F
PINE RIVER     CLOUDY    72  54  53 CALM      29.74R
BRAINERD       SUNNY     76  47  35 SW15      29.71F
STAPLES        MOSUNNY   73  46  38 W8        29.72F
LONG PRAIRIE   FAIR      72  57  60 S13       29.75F
LITTLE FALLS   SUNNY     72  52  49 SW7G16    29.74F
LITCHFIELD     CLOUDY    72  54  53 NW6       29.77F
BUFFALO        MOSUNNY   69  56  61 W7        29.76F
MAPLE LAKE     MOSUNNY   71  56  60 NW6       29.76F
HUTCHINSON     PTSUNNY   69  57  67 NW5       29.77S
$$
MNZ037-044-045-052-053-230000-
   East Central Minnesota

CITY           SKY/WX    TMP DP  RH WIND       PRES   REMARKS
PRINCETON      SUNNY     75  55  50 W5        29.74F
MORA           SUNNY     70  46  43 W9        29.75F
CAMBRIDGE      SUNNY     75  55  50 W7        29.72F
RUSH CITY      SUNNY     72  55  56 CALM      29.74S
MOOSE LAKE     SUNNY     75  50  41 W7        29.68F
HINCKLEY       FAIR      72  52  49 SW12      29.73S
CLOQUET        PTSUNNY   73  46  38 W10       29.69F
MCGREGOR       MOSUNNY   75  46  35 W7        29.70F
$$
MNZ071>073-080-081-089-090-097-098-230000-
   Southwest Minnesota

CITY           SKY/WX    TMP DP  RH WIND       PRES   REMARKS
MONTEVIDEO     SUNNY     73  68  83 N7        29.79S
GRANITE FALLS  CLOUDY    72  56  56 NW9       29.80S
CANBY          PTSUNNY   73  51  46 CALM      29.81F
MARSHALL       CLOUDY    69  53  56 N13       29.79S
REDWOOD FALLS  CLOUDY    68  53  58 N7        29.76S
OLIVIA         CLOUDY    70  55  60 NW8       29.77S
PIPESTONE      CLOUDY    72  54  53 N8        29.79S
WINDOM         CLOUDY    68  61  77 N8        29.77S
WORTHINGTON    CLOUDY    68  61  78 N13       29.78S
JACKSON        CLOUDY    66  61  82 VRB10G16  29.76S
TRACY          CLOUDY    69  58  67 N9        29.79S
SLAYTON        CLOUDY    69  56  63 N13       29.80S
$$
MNZ065>067-074>077-082>085-091>093-230000-
   South Central Minnesota

CITY           SKY/WX    TMP DP  RH WIND       PRES   REMARKS
MANKATO        CLOUDY    68  62  81 N13       29.74F
NEW ULM        CLOUDY    68  61  77 N6        29.75F
ST JAMES       CLOUDY    68  61  77 N12       29.76S
FAIRMONT       CLOUDY    69  64  84 N16       29.73S
GLENCOE        CLOUDY    70  62  77 NW7       29.75S
FARIBAULT      CLOUDY    70  66  88 NW8       29.74S
OWATONNA       CLOUDY    70  64  83 N8        29.73S
WASECA         CLOUDY    72  66  83 N12       29.74S
ALBERT LEA     CLOUDY    73  66  78 N8        29.70F
$$
MNZ078>079-086>088-094>096-230000-
   Southeast Minnesota

CITY           SKY/WX    TMP DP  RH WIND       PRES   REMARKS
ROCHESTER      LGT RAIN  70  68  93 NE7       29.72S
RED WING       CLOUDY    72  64  78 CALM      29.71F
STANTON        CLOUDY    71  66  84 N5        29.73S
DODGE CENTER   CLOUDY    68  64  88 N7        29.73S
WINONA         CLOUDY    70  68  94 CALM      29.70F
AUSTIN         CLOUDY    72  66  83 E3        29.70F
PRESTON        CLOUDY    68  65  90 SE6       29.72S
$$
ABBREVIATIONS USED IN REMARKS
   TC - TEMPERATURES IN CELSIUS
  WCI - WIND CHILL INDEX
   HX - HEAT INDEX
  VSB - VISIBILITY
$$




USA.gov is the U.S. government's official web portal to all federal, state and local government web resources and services.